[[{"header":{"parameterUnit":"m.s-1","parameterCategory":1,"la1":30.2991,"la2":30.254,"lo1":-89.0895,"lo2":-89.0444,"dy":0.0017,"dx":0.0017,"nx":28,"ny":28,"refTime":"2025-02-04T03:00:00:Z","depth":0,"parameterNumber":2,"parameterNumberName":"U-component_of_WINDS"},"data":[0,0,0,0,0,0,0,0,0,0,0,0,0,0,0,0,0,0,0,0,0,0,0,0,0,0,0,0,0,0,0,0,0,0,0,0,0,0,0,0,0,0,0,0,0,0,0,0,0,0,0,0,0,0,0,0,0,0,-2.0382,-2.0382,0,-2.0416,-2.0416,-2.0416,-2.0384,-2.0382,-2.0381,-2.038,-2.0416,-2.0418,-2.042,0,0,0,0,0,0,0,0,0,0,0,0,0,-2.0291,-2.0293,-2.0382,-2.0382,-2.0383,-2.0416,-2.0416,-2.0416,-2.0384,-2.0382,-2.0381,-2.0379,-2.0415,-2.0418,-2.042,0,0,0,0,0,0,0,0,0,0,0,0,0,-2.0328,-2.0294,-2.0382,-2.037,-2.037,-2.0415,-2.0416,-2.0417,-2.0384,-2.0382,-2.038,-2.0378,-2.0414,-2.0418,-2.0421,-2.048,0,0,-2.0431,-2.0432,0,0,0,0,0,0,0,0,-2.0326,-2.0332,-2.0372,-2.0371,-2.037,-2.0393,-2.0397,-2.0438,-2.0385,-2.0379,-2.038,-2.0377,-2.041,-2.0414,-2.0424,-2.0482,-2.0483,-2.0431,-2.0433,-2.0434,-2.0435,0,0,0,0,0,0,0,-2.0324,-2.033,-2.0395,-2.0372,-2.0372,-2.0364,-2.0367,-2.0405,-2.0405,-2.0379,-2.0377,-2.0381,-2.0409,-2.0421,-2.0425,-2.0484,-2.0431,-2.0434,-2.0436,-2.0437,-2.0592,-2.0595,0,0,0,0,0,0,-2.0322,-2.0328,-2.0394,-2.0396,-2.0343,-2.0367,-2.0371,-2.0388,-2.0404,-2.0405,-2.0383,-2.0379,-2.0417,-2.0421,-2.0426,-2.0496,-2.0434,-2.0437,-2.0439,-2.059,-2.0593,-2.0595,0,0,0,0,0,0,-2.032,-2.0328,-2.0393,-2.0362,-2.0369,-2.0371,-2.0391,-2.039,-2.0401,-2.0407,-2.0407,-2.0395,-2.0415,-2.0421,-2.0467,-2.0497,-2.0439,-2.0442,-2.0588,-2.0591,-2.0594,-2.0638,0,0,0,0,0,0,-2.0318,-2.0328,-2.035,-2.0362,-2.0371,-2.0432,-2.0392,-2.0392,-2.0407,-2.0403,-2.0418,-2.0419,-2.0414,-2.0462,-2.047,-2.0501,-2.0444,-2.0585,-2.0589,-2.0593,-2.0634,-2.0642,-2.065,0,0,0,0,0,-2.0315,-2.0361,-2.0351,-2.0359,-2.0398,-2.0434,-2.0439,-2.0432,-2.0409,-2.0432,-2.0436,-2.0419,-2.0493,-2.0467,-2.0476,-2.0508,-2.0583,-2.0588,-2.0593,-2.063,-2.0641,-2.0649,0,0,0,0,0,0,-2.0352,-2.0362,-2.0351,-2.0403,-2.0418,-2.0429,-2.0456,-2.0443,-2.0465,-2.0461,-2.0452,-2.0456,-2.0504,-2.0511,-2.0481,-2.0567,-2.0534,-2.0541,-2.056,-2.057,-2.0578,-2.0575,-2.0447,0,0,0,0,0,-2.0367,-2.0394,-2.0402,-2.0447,-2.0455,-2.0455,-2.047,-2.0463,-2.0479,-2.0485,-2.0492,-2.0508,-2.0535,-2.0553,-2.0578,-2.0635,-2.0638,-2.0662,-2.067,-2.0676,-2.0682,-2.0713,-2.0723,-2.0611,-2.0611,-2.0611,0,0,-2.0396,-2.0405,-2.0423,-2.0455,-2.0465,-2.0495,-2.046,-2.0493,-2.0514,-2.049,-2.0533,-2.0539,-2.0557,-2.0608,-2.0631,-2.0615,-2.0714,-2.0682,-2.0687,-2.069,-2.0719,-2.0729,-2.0739,-2.0615,-2.0614,-2.0613,0,0,-2.0465,-2.0475,-2.0513,-2.0525,-2.0542,-2.0541,-2.0551,-2.0564,-2.0567,-2.061,-2.0592,-2.0619,-2.0666,-2.0679,-2.0691,-2.0767,-2.0752,-2.0776,-2.0817,-2.0847,-2.0856,-2.0863,-2.089,-2.09,-2.0782,-2.0782,-2.0782,0,-2.05,-2.0543,-2.0535,-2.0569,-2.0583,-2.0563,-2.0602,-2.0614,-2.0638,-2.0649,-2.0631,-2.0689,-2.07,-2.0754,-2.0773,-2.0784,-2.0795,-2.0773,-2.0855,-2.0863,-2.087,-2.0895,-2.0905,-2.0785,-2.0784,-2.0784,-2.0784,0,-2.0585,-2.0615,-2.0645,-2.0668,-2.0686,-2.0723,-2.0721,-2.074,-2.0733,-2.0735,-2.0779,-2.0791,-2.0818,-2.0831,-2.0824,-2.0885,-2.0875,-2.0856,-2.0823,-2.0883,-2.0907,-2.0917,-2.0788,-2.0787,-2.0787,-2.0786,0,0,-2.0677,-2.0697,-2.0707,-2.0718,-2.0736,-2.0759,-2.0796,-2.0822,-2.0839,-2.0857,-2.0887,-2.0928,-2.0911,-2.0925,-2.092,-2.0947,-2.1006,-2.0925,-2.0925,-2.0939,-2.1074,-2.1087,-2.1098,-2.0997,-2.0998,-2.1,-2.1072,0,-2.0746,-2.0808,-2.0802,-2.0861,-2.0889,-2.0871,-2.0902,-2.0917,-2.092,-2.0945,-2.0949,-2.0978,-2.0954,-2.0962,-2.0988,-2.0993,-2.1033,-2.0988,-2.1025,-2.1026,-2.102,-2.1111,-2.1124,-2.1192,-2.1081,-2.1083,-2.1084,0,-2.0835,-2.0855,-2.0917,-2.0931,-2.0942,-2.0971,-2.0995,-2.1019,-2.1036,-2.1036,-2.1053,-2.1044,-2.1081,-2.1049,-2.11,-2.107,-2.1085,-2.109,-2.1092,-2.1095,-2.1058,-2.1115,-2.1213,-2.1223,-2.1099,-2.1098,-2.1096,0,-2.0895,-2.0939,-2.0981,-2.0991,-2.1008,-2.1029,-2.1037,-2.1052,-2.1068,-2.109,-2.1101,-2.1127,-2.1141,-2.1162,-2.116,-2.1136,-2.1212,-2.1179,-2.1214,-2.1214,-2.1229,-2.1228,-2.1331,-2.1241,-2.1241,-2.1241,-2.124,0,-2.0972,-2.101,-2.1008,-2.1034,-2.1077,-2.1071,-2.1114,-2.112,-2.1133,-2.1161,-2.1147,-2.1173,-2.117,-2.1196,-2.1195,-2.1238,-2.1245,-2.1247,-2.1246,-2.1247,-2.1247,-2.1256,-2.1251,-2.1243,-2.1243,-2.1242,-2.1242,0,-2.1046,-2.1046,-2.1091,-2.1104,-2.1109,-2.1139,-2.1151,-2.1176,-2.1179,-2.1214,-2.1222,-2.1226,-2.1257,-2.1257,-2.1293,-2.1292,-2.1344,-2.1338,-2.1338,-2.1337,-2.1371,-2.1367,-2.1482,-2.1497,-2.1398,-2.1399,-2.14,0,-2.1095,-2.1123,-2.114,-2.1157,-2.1166,-2.1194,-2.1211,-2.1207,-2.1225,-2.1247,-2.127,-2.1299,-2.1322,-2.1373,-2.1379,-2.1407,-2.1401,-2.144,-2.1405,-2.1406,-2.1401,-2.1399,-2.1402,-2.1446,-2.1447,-2.1448,-2.1449,0,-2.1181,-2.118,-2.1204,-2.1229,-2.1249,-2.1269,-2.1287,-2.1302,-2.13,-2.1321,-2.1352,-2.137,-2.1406,-2.1436,-2.1463,-2.1472,-2.146,-2.146,-2.1469,-2.147,-2.1469,-2.1469,-2.1356,-2.1457,-2.1456,-2.1455,-2.1455,-2.1454,-2.1243,-2.1268,-2.1283,-2.1311,-2.1324,-2.1342,-2.1366,-2.1372,-2.1397,-2.1426,-2.1422,-2.1457,-2.1474,-2.1509,-2.1521,-2.1548,-2.1535,-2.1549,-2.1552,-2.1555,-2.1558,-2.1465,-2.1553,-2.1553,-2.1553,-2.1553,-2.1553,0,-2.1328,-2.1337,-2.1363,-2.1388,-2.1411,-2.1398,-2.1417,-2.1437,-2.1467,-2.1484,-2.1507,-2.1543,-2.1572,-2.1582,-2.161,-2.1631,-2.1626,-2.1638,-2.1636,-2.1638,-2.1569,-2.1558,-2.1641,-2.1641,-2.1641,-2.1641,-2.1641,-2.1641,-2.1375,-2.1416,-2.1417,-2.1465,-2.1474,-2.1508,-2.152,-2.1536,-2.155,-2.1591,-2.1614,-2.162,-2.1635,-2.1664,-2.169,-2.1692,-2.1703,-2.1718,-2.1718,-2.1652,-2.1643,-2.1635,-2.1624,-2.172,-2.172,-2.1784,-2.1785,-2.1785]},{"header":{"parameterUnit":"m.s-1","parameterCategory":1,"la1":30.2991,"la2":30.254,"lo1":-89.0895,"lo2":-89.0444,"dy":0.0017,"dx":0.0017,"nx":28,"ny":28,"refTime":"2025-02-04T03:00:00:Z","depth":0,"parameterNumber":3,"parameterNumberName":"V-component_of_WINDS"},"data":[0,0,0,0,0,0,0,0,0,0,0,0,0,0,0,0,0,0,0,0,0,0,0,0,0,0,0,0,0,0,0,0,0,0,0,0,0,0,0,0,0,0,0,0,0,0,0,0,0,0,0,0,0,0,0,0,0,0,1.2506,1.2506,0,1.2526,1.2527,1.2527,1.256,1.256,1.2561,1.2562,1.2581,1.2581,1.258,0,0,0,0,0,0,0,0,0,0,0,0,0,1.2495,1.2495,1.2506,1.2506,1.2506,1.2526,1.2527,1.2527,1.256,1.256,1.2561,1.2562,1.2581,1.2581,1.258,0,0,0,0,0,0,0,0,0,0,0,0,0,1.2506,1.2495,1.2506,1.2525,1.2527,1.2526,1.2527,1.2527,1.256,1.2561,1.2561,1.2562,1.2581,1.2581,1.258,1.2561,0,0,1.258,1.258,0,0,0,0,0,0,0,0,1.2506,1.2507,1.2522,1.2524,1.2526,1.2542,1.253,1.2538,1.2559,1.2547,1.2562,1.2563,1.2567,1.2568,1.257,1.2562,1.2563,1.258,1.258,1.258,1.258,0,0,0,0,0,0,0,1.2505,1.2506,1.2514,1.2522,1.2525,1.2533,1.2536,1.2532,1.2551,1.2548,1.2551,1.2553,1.2568,1.257,1.257,1.2563,1.258,1.258,1.258,1.258,1.2543,1.2542,0,0,0,0,0,0,1.2501,1.2505,1.2513,1.2515,1.2518,1.2532,1.2535,1.2536,1.2552,1.2555,1.2552,1.2554,1.2569,1.257,1.2571,1.2551,1.258,1.258,1.258,1.2544,1.2543,1.2542,0,0,0,0,0,0,1.2501,1.2502,1.2513,1.2511,1.2513,1.2532,1.2532,1.2536,1.2537,1.2555,1.2558,1.255,1.257,1.2571,1.2564,1.2552,1.258,1.258,1.2545,1.2544,1.2543,1.251,0,0,0,0,0,0,1.25,1.2501,1.2494,1.251,1.2513,1.2505,1.2531,1.2535,1.2537,1.254,1.2554,1.2557,1.2571,1.2564,1.2564,1.2552,1.258,1.2546,1.2545,1.2543,1.2512,1.2507,1.2503,0,0,0,0,0,1.25,1.2483,1.2494,1.2495,1.2504,1.2504,1.2506,1.2523,1.2536,1.2529,1.2541,1.2556,1.2553,1.2563,1.2563,1.2551,1.2547,1.2545,1.2543,1.2514,1.2508,1.2503,0,0,0,0,0,0,1.2464,1.2486,1.2497,1.2486,1.2493,1.251,1.2502,1.2516,1.252,1.2522,1.2543,1.2546,1.2536,1.2543,1.2554,1.2535,1.2553,1.2551,1.253,1.2525,1.2521,1.252,1.258,0,0,0,0,0,1.2456,1.2454,1.2473,1.2461,1.2464,1.2482,1.2483,1.2496,1.2504,1.2507,1.2518,1.2525,1.2526,1.2526,1.2528,1.2513,1.2517,1.2505,1.2501,1.2497,1.2495,1.2489,1.2485,1.2535,1.2535,1.2535,0,0,1.2436,1.2448,1.2446,1.2454,1.2461,1.246,1.2484,1.2481,1.248,1.2506,1.2501,1.2509,1.2519,1.2508,1.2504,1.2513,1.2482,1.2495,1.2492,1.2492,1.2487,1.2482,1.2478,1.2534,1.2534,1.2534,0,0,1.2401,1.2409,1.2401,1.2408,1.2419,1.2432,1.243,1.2445,1.2452,1.2447,1.2467,1.2466,1.2467,1.2473,1.2476,1.2446,1.246,1.2446,1.2423,1.2417,1.2413,1.241,1.2399,1.2395,1.2443,1.2443,1.2443,0,1.2376,1.2374,1.2394,1.2391,1.2394,1.2419,1.2411,1.2416,1.2427,1.2429,1.244,1.2443,1.245,1.2442,1.2435,1.2437,1.2435,1.2444,1.2412,1.2409,1.2406,1.2396,1.2392,1.2441,1.2442,1.2442,1.2442,0,1.2343,1.2342,1.2334,1.2345,1.2348,1.2341,1.236,1.2361,1.2374,1.2385,1.238,1.2391,1.2396,1.2395,1.2407,1.2389,1.2395,1.2408,1.2427,1.2399,1.239,1.2387,1.2439,1.244,1.244,1.2441,0,0,1.2285,1.2309,1.2305,1.2311,1.2327,1.2326,1.2321,1.2327,1.2327,1.2334,1.2331,1.2332,1.2346,1.2349,1.2363,1.2357,1.2333,1.2372,1.2373,1.2365,1.2315,1.2304,1.23,1.2343,1.2343,1.2342,1.2314,0,1.2253,1.2247,1.2265,1.2255,1.2254,1.2279,1.2275,1.2284,1.2295,1.2296,1.2308,1.2309,1.2326,1.2329,1.2325,1.2337,1.2324,1.2339,1.2341,1.234,1.2338,1.2295,1.2284,1.2257,1.2311,1.231,1.231,0,1.2214,1.2221,1.221,1.2228,1.2228,1.2224,1.2232,1.2233,1.2244,1.2252,1.2257,1.2274,1.227,1.2289,1.2285,1.2295,1.2297,1.2303,1.2303,1.2303,1.2323,1.2295,1.2249,1.2245,1.2305,1.2305,1.2305,0,1.2173,1.218,1.2175,1.2179,1.2199,1.2196,1.2204,1.2216,1.2218,1.2225,1.2227,1.2233,1.2236,1.224,1.2257,1.2269,1.2252,1.2271,1.2259,1.2258,1.2254,1.2254,1.2207,1.2255,1.2255,1.2255,1.2255,0,1.2136,1.2128,1.2157,1.2153,1.2146,1.2168,1.216,1.2171,1.2182,1.2181,1.2202,1.2201,1.2224,1.2226,1.2239,1.2235,1.2236,1.2242,1.2246,1.224,1.224,1.2242,1.2244,1.2254,1.2254,1.2254,1.2254,0,1.2089,1.2107,1.2104,1.2123,1.2128,1.2122,1.2139,1.2137,1.215,1.2149,1.215,1.217,1.2173,1.2191,1.2198,1.2207,1.2198,1.2205,1.2194,1.2197,1.2183,1.2184,1.2136,1.2132,1.2182,1.2181,1.2181,0,1.2063,1.2059,1.2078,1.208,1.2088,1.209,1.2093,1.2115,1.2117,1.2131,1.2127,1.2132,1.2137,1.2141,1.2156,1.2162,1.2169,1.2152,1.217,1.2165,1.217,1.217,1.217,1.2148,1.2147,1.2147,1.2147,0,1.2017,1.2027,1.2031,1.2039,1.2043,1.205,1.2059,1.2059,1.2083,1.2085,1.2089,1.2093,1.2101,1.2106,1.2114,1.2122,1.2138,1.2141,1.2139,1.2133,1.2127,1.213,1.2184,1.2142,1.2142,1.2143,1.2143,1.2143,1.198,1.1978,1.1992,1.1996,1.2005,1.2013,1.2013,1.2027,1.203,1.2039,1.2052,1.2054,1.2067,1.208,1.2087,1.2089,1.2098,1.2094,1.2093,1.2092,1.209,1.2127,1.2091,1.2091,1.2091,1.2091,1.2091,0,1.1935,1.1946,1.195,1.1962,1.1966,1.1982,1.1993,1.1995,1.1997,1.2007,1.2013,1.2018,1.2023,1.2039,1.2046,1.2045,1.2052,1.2046,1.2046,1.2048,1.2081,1.2082,1.204,1.204,1.204,1.204,1.204,1.204,1.1912,1.1909,1.1921,1.1923,1.1934,1.1937,1.1942,1.1949,1.1958,1.1963,1.1968,1.1979,1.1992,1.2,1.2006,1.2011,1.2012,1.2003,1.201,1.204,1.2045,1.205,1.2052,1.2003,1.2003,1.1977,1.1977,1.1977]}]]